| time (UTC) | temp F | wind direction | speed knots | gust knots | rain 1hr in | rain 24hr in | rain mn in | humidity % | barometer mb |
| 20260508194523 | 54 | 223 | 3.5 | 4.3 | 0.00 | 0.12 | 0.06 | 80 | 1010.0 |
| 20260508193019 | 54 | 198 | 3.5 | 4.3 | 0.00 | 0.12 | 0.06 | 82 | 1010.2 |
| 20260508191524 | 54 | 223 | 4.3 | 7.8 | 0.00 | 0.12 | 0.06 | 83 | 1010.6 |
| 20260508190039 | 53 | 219 | 7.0 | 9.6 | 0.00 | 0.12 | 0.06 | 84 | 1010.9 |
| 20260508184529 | 52 | 211 | 7.0 | 10.4 | 0.00 | 0.12 | 0.06 | 85 | 1011.2 |
| 20260508183012 | 52 | 220 | 7.8 | 12.2 | 0.00 | 0.12 | 0.06 | 86 | 1011.2 |
| 20260508181521 | 52 | 213 | 7.8 | 12.2 | 0.01 | 0.12 | 0.06 | 86 | 1011.2 |
| 20260508180022 | 53 | 215 | 11.3 | 15.6 | 0.01 | 0.12 | 0.06 | 85 | 1011.4 |
| 20260508174520 | 55 | 227 | 10.4 | 12.2 | 0.01 | 0.12 | 0.06 | 82 | 1011.6 |
| 20260508173015 | 55 | 235 | 8.7 | 10.4 | 0.01 | 0.12 | 0.06 | 80 | 1011.6 |
| 20260508171512 | 56 | 234 | 9.6 | 13.9 | 0.00 | 0.11 | 0.05 | 75 | 1011.7 |
| 20260508170012 | 56 | 209 | 8.7 | 12.2 | 0.00 | 0.11 | 0.05 | 79 | 1011.6 |
| 20260508164534 | 55 | 202 | 8.7 | 14.8 | 0.01 | 0.11 | 0.05 | 79 | 1011.9 |
| 20260508163029 | 54 | 201 | 8.7 | 10.4 | 0.01 | 0.11 | 0.05 | 78 | 1012.1 |
| 20260508161521 | 52 | 213 | 6.1 | 12.2 | 0.01 | 0.11 | 0.05 | 82 | 1012.4 |
| 20260508160022 | 52 | 229 | 12.2 | 13.9 | 0.01 | 0.11 | 0.05 | 77 | 1012.6 |
| 20260508154518 | 53 | 248 | 8.7 | 12.2 | 0.00 | 0.10 | 0.04 | 77 | 1012.9 |
| 20260508153026 | 53 | 242 | 7.8 | 11.3 | 0.00 | 0.10 | 0.04 | 78 | 1012.6 |
| 20260508151511 | 53 | 259 | 9.6 | 13.0 | 0.00 | 0.10 | 0.04 | 75 | 1012.7 |
| 20260508150029 | 53 | 233 | 7.8 | 9.6 | 0.00 | 0.10 | 0.04 | 76 | 1012.6 |
| 20260508144528 | 54 | 261 | 8.7 | 13.0 | 0.00 | 0.10 | 0.04 | 74 | 1012.5 |
| 20260508143024 | 54 | 256 | 11.3 | 13.9 | 0.00 | 0.10 | 0.04 | 73 | 1012.6 |
| 20260508141521 | 54 | 246 | 11.3 | 13.9 | 0.00 | 0.10 | 0.04 | 74 | 1012.5 |
| 20260508140022 | 53 | 224 | 6.1 | 9.6 | 0.00 | 0.10 | 0.04 | 79 | 1012.5 |
| 20260508134515 | 52 | 247 | 7.8 | 10.4 | 0.00 | 0.10 | 0.04 | 77 | 1012.6 |
| 20260508133030 | 51 | 244 | 8.7 | 12.2 | 0.00 | 0.10 | 0.04 | 77 | 1012.8 |
| 20260508131525 | 51 | 244 | 6.1 | 9.6 | 0.00 | 0.10 | 0.04 | 77 | 1012.7 |
| 20260508130032 | 50 | 245 | 5.2 | 7.0 | 0.00 | 0.10 | 0.04 | 79 | 1012.7 |
| 20260508124521 | 49 | 259 | 6.1 | 8.7 | 0.00 | 0.10 | 0.04 | 79 | 1012.9 |
| 20260508123022 | 48 | 249 | 4.3 | 6.1 | 0.00 | 0.10 | 0.04 | 81 | 1012.7 |
| 20260508121521 | 47 | 246 | 3.5 | 4.3 | 0.00 | 0.10 | 0.04 | 82 | 1012.7 |
| 20260508120028 | 46 | 248 | 2.6 | 4.3 | 0.00 | 0.10 | 0.04 | 84 | 1012.6 |
| 20260508114526 | 46 | 233 | 4.3 | 7.0 | 0.00 | 0.10 | 0.04 | 83 | 1012.5 |
| 20260508113026 | 45 | 240 | 4.3 | 7.0 | 0.00 | 0.10 | 0.04 | 83 | 1012.2 |
| 20260508111525 | 45 | 231 | 4.3 | 6.1 | 0.00 | 0.10 | 0.04 | 83 | 1012.0 |
| 20260508110023 | 45 | 234 | 4.3 | 7.0 | 0.00 | 0.10 | 0.04 | 83 | 1011.8 |
| 20260508104524 | 44 | 229 | 4.3 | 6.1 | 0.00 | 0.10 | 0.04 | 84 | 1011.7 |
| 20260508103033 | 43 | 223 | 4.3 | 6.1 | 0.00 | 0.10 | 0.04 | 84 | 1011.6 |
| 20260508101528 | 44 | 223 | 5.2 | 6.1 | 0.00 | 0.10 | 0.04 | 84 | 1011.6 |
| 20260508100025 | 44 | 222 | 3.5 | 5.2 | 0.00 | 0.10 | 0.04 | 85 | 1011.6 |
| 20260508094527 | 43 | 205 | 3.5 | 4.3 | 0.00 | 0.10 | 0.04 | 87 | 1011.7 |
| 20260508093036 | 43 | 197 | 2.6 | 3.5 | 0.00 | 0.10 | 0.04 | 87 | 1011.7 |
| 20260508091533 | 44 | 197 | 2.6 | 3.5 | 0.00 | 0.10 | 0.04 | 87 | 1011.8 |
| 20260508090024 | 45 | 197 | 3.5 | 5.2 | 0.00 | 0.10 | 0.04 | 87 | 1011.9 |
| 20260508084520 | 45 | 191 | 3.5 | 4.3 | 0.00 | 0.10 | 0.04 | 86 | 1011.8 |
| 20260508083017 | 45 | 202 | 2.6 | 5.2 | 0.00 | 0.10 | 0.04 | 86 | 1011.9 |
| 20260508081515 | 46 | 198 | 3.5 | 6.1 | 0.00 | 0.10 | 0.04 | 86 | 1011.9 |
| 20260508080025 | 45 | 190 | 5.2 | 7.0 | 0.00 | 0.10 | 0.04 | 87 | 1011.9 |
| 20260508074526 | 45 | 193 | 3.5 | 6.1 | 0.00 | 0.10 | 0.04 | 87 | 1011.9 |
| 20260508073026 | 45 | 198 | 5.2 | 7.0 | 0.00 | 0.10 | 0.04 | 87 | 1012.1 |
| 20260508071524 | 45 | 196 | 3.5 | 4.3 | 0.00 | 0.10 | 0.04 | 85 | 1012.1 |
| 20260508070023 | 46 | 206 | 5.2 | 5.2 | 0.00 | 0.10 | 0.04 | 85 | 1012.3 |
| 20260508064525 | 46 | 225 | 3.5 | 5.2 | 0.02 | 0.10 | 0.04 | 85 | 1012.4 |
| 20260508063016 | 45 | 229 | 2.6 | 3.5 | 0.02 | 0.10 | 0.04 | 87 | 1012.5 |
| 20260508061512 | 45 | 207 | 1.7 | 4.3 | 0.02 | 0.10 | 0.04 | 87 | 1012.4 |
| 20260508060008 | 46 | 196 | 5.2 | 7.8 | 0.02 | 0.10 | 0.04 | 87 | 1012.5 |
| 20260508054508 | 45 | 204 | 5.2 | 7.8 | 0.00 | 0.08 | 0.02 | 87 | 1012.8 |
| 20260508053004 | 45 | 208 | 5.2 | 7.0 | 0.00 | 0.08 | 0.02 | 87 | 1012.8 |
| 20260508051521 | 45 | 205 | 4.3 | 6.1 | 0.00 | 0.08 | 0.02 | 86 | 1012.9 |
| 20260508050025 | 46 | 207 | 3.5 | 7.0 | 0.02 | 0.08 | 0.02 | 84 | 1013.0 |
| 20260508044515 | 47 | 200 | 4.3 | 7.0 | 0.04 | 0.08 | 0.02 | 82 | 1013.0 |
| 20260508043012 | 47 | 156 | 4.3 | 7.8 | 0.07 | 0.08 | 0.02 | 81 | 1012.8 |
| 20260508041523 | 47 | 205 | 4.3 | 8.7 | 0.08 | 0.08 | 0.02 | 80 | 1013.4 |
| 20260508040030 | 48 | 294 | 2.6 | 12.2 | 0.06 | 0.06 | 0.00 | 78 | 1013.7 |
| 20260508034522 | 47 | 298 | 0.9 | 2.6 | 0.04 | 0.04 | 0.04 | 81 | 1013.6 |
| 20260508033015 | 48 | 244 | 2.6 | 6.1 | 0.01 | 0.01 | 0.01 | 77 | 1013.5 |
| 20260508031511 | 47 | 175 | 2.6 | 4.3 | 0.00 | 0.00 | 0.00 | 75 | 1012.9 |
| 20260508030007 | 48 | 175 | 4.3 | 6.1 | 0.00 | 0.00 | 0.00 | 72 | 1013.1 |
| 20260508024524 | 48 | 183 | 4.3 | 5.2 | 0.00 | 0.00 | 0.00 | 72 | 1013.1 |
| 20260508023023 | 47 | 182 | 1.7 | 3.5 | 0.00 | 0.00 | 0.00 | 76 | 1013.1 |
| 20260508021518 | 48 | 182 | 3.5 | 4.3 | 0.00 | 0.00 | 0.00 | 73 | 1013.1 |
| 20260508020027 | 48 | 180 | 4.3 | 6.1 | 0.00 | 0.00 | 0.00 | 75 | 1013.0 |
| 20260508014518 | 49 | 176 | 5.2 | 6.1 | 0.00 | 0.00 | 0.00 | 77 | 1013.1 |
| 20260508013014 | 49 | 229 | 2.6 | 3.5 | 0.00 | 0.00 | 0.00 | 71 | 1013.1 |
| 20260508011510 | 50 | 246 | 3.5 | 4.3 | 0.00 | 0.00 | 0.00 | 66 | 1013.0 |
| 20260508010027 | 50 | 254 | 3.5 | 6.1 | 0.00 | 0.00 | 0.00 | 65 | 1013.0 |
| 20260508004524 | 51 | 260 | 4.3 | 9.6 | 0.00 | 0.00 | 0.00 | 62 | 1013.1 |
| 20260508003021 | 51 | 250 | 4.3 | 7.0 | 0.00 | 0.00 | 0.00 | 60 | 1013.2 |
| 20260508001537 | 51 | 269 | 5.2 | 10.4 | 0.00 | 0.00 | 0.00 | 61 | 1013.2 |
| 20260508000016 | 51 | 246 | 8.7 | 13.0 | 0.00 | 0.00 | 0.00 | 57 | 1013.1 |
| 20260507234516 | 53 | 253 | 9.6 | 14.8 | 0.00 | 0.00 | 0.00 | 53 | 1013.2 |
| 20260507233027 | 53 | 229 | 10.4 | 18.2 | 0.00 | 0.00 | 0.00 | 48 | 1013.0 |
| 20260507231533 | 54 | 236 | 13.9 | 19.1 | 0.00 | 0.00 | 0.00 | 47 | 1012.9 |
| 20260507230026 | 55 | 250 | 14.8 | 19.1 | 0.00 | 0.00 | 0.00 | 43 | 1012.8 |
| 20260507224532 | 56 | 263 | 13.0 | 17.4 | 0.00 | 0.00 | 0.00 | 39 | 1012.4 |
| 20260507223021 | 56 | 266 | 8.7 | 12.2 | 0.00 | 0.00 | 0.00 | 41 | 1012.4 |
| 20260507221518 | 57 | 266 | 8.7 | 14.8 | 0.00 | 0.00 | 0.00 | 40 | 1012.3 |
| 20260507220039 | 57 | 242 | 6.1 | 13.9 | 0.00 | 0.00 | 0.00 | 37 | 1012.3 |
| 20260507214535 | 56 | 264 | 10.4 | 16.5 | 0.00 | 0.00 | 0.00 | 41 | 1012.3 |
| 20260507213009 | 58 | 308 | 9.6 | 17.4 | 0.00 | 0.00 | 0.00 | 38 | 1012.2 |
| 20260507211503 | 58 | 251 | 13.0 | 20.0 | 0.00 | 0.00 | 0.00 | 37 | 1012.2 |
| 20260507210022 | 57 | 289 | 7.0 | 14.8 | 0.00 | 0.00 | 0.00 | 40 | 1012.3 |
| 20260507204521 | 57 | 257 | 9.6 | 15.6 | 0.00 | 0.00 | 0.00 | 43 | 1012.5 |
| 20260507203016 | 57 | 279 | 8.7 | 13.9 | 0.00 | 0.00 | 0.00 | 42 | 1012.6 |
| 20260507201514 | 57 | 300 | 12.2 | 20.9 | 0.00 | 0.00 | 0.00 | 37 | 1012.7 |
| 20260507200016 | 56 | 286 | 11.3 | 20.9 | 0.00 | 0.00 | 0.00 | 40 | 1012.9 |